Weather History for KARA - September, 2013

Change the Weather History Date:

Saturday, September 7, 2013

  Actual Average Record
Temperature  
Mean Temperature 85 °F 81 °F  
Max Temperature 96 °F 90 °F 96 °F (2012)
Min Temperature 74 °F 72 °F 56 °F (1953)
Degree Days  
Heating Degree Days 0 0  
Month to date heating degree days 0 0  
Since 1 July heating degree days 0 0  
Cooling Degree Days 20 16  
Month to date cooling degree days 149 115  
Year to date cooling degree days 2469 2258  
Growing Degree Days 35 (Base 50)    
Moisture  
Dew Point 73 °F    
Average Humidity 65    
Maximum Humidity 87    
Minimum Humidity 43    
Precipitation  
Precipitation 0.42 in 0.15 in 2.13 in (1973)
Month to date precipitation 0.58 1.09  
Year to date precipitation 53.65 41.94  
Sea Level Pressure  
Sea Level Pressure 30.01 in    
Wind  
Wind Speed 4 mph (East)    
Max Wind Speed 21 mph    
Max Gust Speed 26 mph    
Visibility 8 miles    
Events Rain , Thunderstorm    
T = Trace of Precipitation, MM = Missing Value Source: NWS Daily Summary

Daily Weather History Graph

Daily Weather History Graph

Search for Another Location

Airport or City:

Trip Planner

Search our weather history database for the weather conditions in past years. The results will help you decide how hot, cold, wet, or windy it might be!

Date:

Astronomy

Sep. 07, 2013 Rise Set
Actual Time 6:47 AM CDT 7:22 PM CDT
Civil Twilight 6:23 AM CDT 7:46 PM CDT
Nautical Twilight 5:55 AM CDT 8:14 PM CDT
Astronomical Twilight 5:26 AM CDT 8:43 PM CDT
Moon 8:48 AM CDT (9/7) 8:36 PM CDT (9/7)
Length of Visible Light 13h 22m
Length of Day
12h 34m
Waxing Crescent, 5% of the Moon is Illuminated
Sep 7
Waxing Crescent
Sep 12
First Quarter
Sep 19
Full
Sep 26
Last Quarter
Oct 4
New

Hourly Weather History & Observations

Time (CDT) Temp. Heat Index Dew Point Humidity Pressure Visibility Wind Dir Wind Speed Gust Speed Precip Events Conditions
12:53 AM 79.0 °F - 73.9 °F 84% 30.01 in 10.0 mi East 3.5 mph - N/A   Clear
1:53 AM 79.0 °F - 73.9 °F 84% 30.01 in 10.0 mi Calm Calm - N/A   Clear
2:53 AM 78.1 °F - 73.9 °F 87% 30.00 in 10.0 mi ENE 3.5 mph - N/A   Clear
3:53 AM 78.1 °F - 73.0 °F 84% 29.99 in 10.0 mi East 3.5 mph - N/A   Clear
4:53 AM 77.0 °F - 72.0 °F 84% 30.00 in 10.0 mi Calm Calm - N/A   Clear
5:53 AM 78.1 °F - 73.0 °F 84% 30.01 in 10.0 mi NE 3.5 mph - N/A   Clear
6:53 AM 78.1 °F - 73.0 °F 84% 30.03 in 10.0 mi NNE 3.5 mph - N/A   Clear
7:53 AM 80.1 °F 84.5 °F 73.9 °F 81% 30.04 in 10.0 mi ENE 5.8 mph - N/A   Clear
8:53 AM 84.9 °F 93.3 °F 75.0 °F 72% 30.05 in 10.0 mi NE 5.8 mph - N/A   Clear
9:53 AM 87.1 °F 97.3 °F 75.9 °F 69% 30.06 in 10.0 mi NNE 8.1 mph - N/A   Clear
10:53 AM 89.1 °F 99.1 °F 75.0 °F 63% 30.06 in 10.0 mi ENE 5.8 mph - N/A   Partly Cloudy
11:53 AM 91.9 °F 100.7 °F 73.0 °F 54% 30.05 in 10.0 mi Variable 5.8 mph - N/A   Clear
12:53 PM 93.0 °F 100.1 °F 71.1 °F 49% 30.03 in 10.0 mi Calm Calm - N/A   Scattered Clouds
1:53 PM 95.0 °F 101.3 °F 70.0 °F 44% 30.01 in 10.0 mi Calm Calm - N/A   Mostly Cloudy
2:53 PM 95.0 °F 101.3 °F 70.0 °F 44% 29.97 in 10.0 mi ENE 3.5 mph - N/A   Scattered Clouds
3:53 PM 93.9 °F 100.8 °F 71.1 °F 47% 29.97 in 10.0 mi ENE 6.9 mph - N/A   Mostly Cloudy
4:49 PM 84.2 °F 89.6 °F 71.6 °F 66% 29.99 in 10.0 mi SSE 15.0 mph 23.0 mph N/A Thunderstorm Thunderstorm
4:53 PM 82.9 °F 88.0 °F 72.0 °F 69% 30.00 in 10.0 mi SSE 18.4 mph 23.0 mph N/A Thunderstorm Thunderstorm
5:18 PM 78.8 °F - 71.6 °F 78% 30.03 in 0.5 mi SE 15.0 mph 26.5 mph 0.22 in Rain , Thunderstorm Heavy Thunderstorms and Rain
5:26 PM 78.8 °F - 73.4 °F 83% 30.02 in 1.0 mi SSE 15.0 mph 20.7 mph 0.36 in Rain , Thunderstorm Heavy Thunderstorms and Rain
5:35 PM 78.8 °F - 73.4 °F 83% 30.02 in 2.0 mi SSE 11.5 mph - 0.42 in Rain , Thunderstorm Heavy Thunderstorms and Rain
5:45 PM 78.8 °F - 73.4 °F 83% 30.02 in 6.0 mi South 4.6 mph - 0.42 in Rain , Thunderstorm Light Thunderstorms and Rain
5:53 PM 77.0 °F - 73.0 °F 88% 30.01 in 8.0 mi South 4.6 mph - 0.42 in Rain , Thunderstorm Light Thunderstorms and Rain
6:00 PM 77.0 °F - 71.6 °F 83% 30.02 in 9.0 mi South 5.8 mph - N/A   Mostly Cloudy
6:53 PM 75.9 °F - 72.0 °F 87% 30.00 in 10.0 mi East 5.8 mph - 0.00 in   Clear
7:53 PM 75.9 °F - 72.0 °F 87% 29.99 in 10.0 mi Calm Calm - N/A   Clear
8:53 PM 75.9 °F - 72.0 °F 87% 30.00 in 10.0 mi North 3.5 mph - N/A   Clear
9:53 PM 75.0 °F - 72.0 °F 90% 30.02 in 7.0 mi Calm Calm - N/A   Clear
10:53 PM 75.0 °F - 72.0 °F 90% 30.01 in 5.0 mi Calm Calm - N/A   Clear
11:53 PM 75.0 °F - 72.0 °F 90% 30.00 in 8.0 mi Calm Calm - N/A   Clear